Weather in Kiyaly

Kazakhstan     54°11′55″N   69°39′22″E
temp.,
°C
wind,
m/s
gust,
m/s
humid.,
%
clouds,
%
prec.,
mm/h
press.,
hPa
HPBL,
m
24 september, fri
fri2400:00+3nnw226953 0.0 102912
03:00+4wnw2270100 0.0 103048
06:00+5w2367100 0.0 103062
09:00+6w2564100 0.0 1031226
12:00+8w4453100 0.0 1031722
15:00+11w454350 0.0 10301613
18:00+11w454724 0.0 1029629
21:00+7w336010 0.0 102921
25 september, sat
sat2500:00+6wsw33655 0.0 102933
03:00+5w3368100 0.0 102940
06:00+4w3469100 0.0 102856
09:00+6w356248 0.0 1027151
12:00+11w45440 0.0 1026704
15:00+14wnw34370 0.0 10241277
18:00+13nw23410 0.0 102382
21:00+9ne59575 0.0 1024188
26 september, sun
sun2600:00+6e511725 0.0 1024339
03:00+4e510765 0.0 1025299
06:00+2e497544 0.0 1026262
09:00+3e61062100 0.0 1026447
12:00+7ese674697 0.0 1026986
15:00+9e78365 0.0 10251166
18:00+8e79378 0.0 10251144
21:00+5e71352100 0.0 1025601
27 september, mon
mon2700:00+3e8146183 0.0 1025643
03:00+2e81563100 0.0 1024669
06:00+1e91767100 0.0 1023683
09:00+2e101767100 0.0 1022870
12:00+5e121553100 0.0 10211087
15:00+7e111443100 0.0 10201381
18:00+6ese9144813 0.0 10191533
21:00+4e81470100 0.0 10201128
28 september, tue
tue2800:00+4e91576100 0.1 10181190
03:00+3ene91691100 0.5 10161050
06:00+2ene91695100 1.5 1016956
09:00+2ene101796100 1.8 1014993
12:00+3ene111893100 3.8 10131246
15:00+3ene111789100 2.1 10121241
18:00+2ne101797100 5.7 10111050
21:00+2ne101797100 2.9 1011938